www.pogodaiklimat.ru
Время
(UTC), дата
13 10.04
14 10.04
15 10.04
16 10.04
17 10.04
18 10.04
19 10.04
20 10.04
21 10.04
22 10.04
23 10.04
00 11.04
01 11.04
02 11.04
03 11.04
04 11.04
05 11.04
06 11.04
07 11.04
08 11.04
09 11.04
10 11.04
11 11.04
12 11.04
13 11.04
14 11.04
15 11.04
16 11.04
17 11.04
18 11.04
19 11.04
20 11.04
21 11.04
22 11.04
23 11.04
00 12.04
01 12.04
02 12.04
03 12.04
04 12.04
05 12.04
06 12.04
07 12.04
08 12.04
09 12.04
10 12.04
11 12.04
12 12.04
13 12.04
14 12.04
15 12.04
16 12.04
17 12.04
18 12.04
19 12.04
20 12.04
21 12.04
22 12.04
23 12.04
00 13.04
01 13.04
02 13.04
03 13.04
04 13.04
05 13.04
06 13.04
07 13.04
08 13.04
09 13.04
10 13.04
11 13.04
12 13.04
13 13.04
14 13.04
15 13.04
16 13.04
17 13.04
18 13.04
19 13.04
20 13.04
21 13.04
22 13.04
23 13.04
00 14.04
01 14.04
02 14.04
03 14.04
04 14.04
05 14.04
06 14.04
07 14.04
08 14.04
09 14.04
10 14.04
11 14.04
12 14.04
13 14.04
14 14.04
15 14.04
16 14.04
17 14.04
18 14.04
19 14.04
20 14.04
21 14.04
22 14.04
23 14.04
00 15.04
01 15.04
02 15.04
03 15.04
04 15.04
05 15.04
06 15.04
07 15.04
08 15.04
09 15.04
10 15.04
11 15.04
12 15.04
13 15.04
14 15.04
15 15.04
16 15.04
17 15.04
18 15.04
19 15.04
20 15.04
21 15.04
22 15.04
23 15.04
00 16.04
01 16.04
02 16.04
03 16.04
04 16.04
05 16.04
06 16.04
07 16.04
08 16.04
09 16.04
10 16.04
11 16.04
12 16.04
13 16.04
14 16.04
15 16.04
16 16.04
17 16.04
18 16.04
19 16.04
20 16.04
21 16.04
22 16.04
23 16.04
00 17.04
01 17.04
02 17.04
03 17.04
04 17.04
05 17.04
06 17.04
07 17.04
08 17.04
09 17.04
10 17.04
11 17.04
12 17.04
13 17.04
14 17.04
Ветер
(напр.,м/с)
Видим. Явления Облачность Т
(С)
Тd
(С)
f
(%)
Тe
(С)
Тes
(С)
Комфортность P
(гПа)
Po
(гПа)
Тmin
(С)
Tmax
(С)
R
(мм)
R24
(мм)
S
(см)
СЗ 3 60 км в посл. час дождь н/о +5.3 -0.2 68 +2 +2 тепло 1017.7 1009.9
В 3 70 км в посл. час дождь н/о +5.6 -1.1 62 +3 +3 тепло 1017.7 1009.9
СВ 2 >70 км в посл. час дождь н/о +5.9 -2.4 55 +4 +4 по сезону 1017.5 1009.7
Ю 3 70 км в посл. час дождь н/о +4.2 +0.7 78 +1 +1 по сезону 1017.4 1009.5
Ю 1 29 км слаб. дождь н/о +4.6 -0.2 71 +3 +3 по сезону 1017.6 1009.7
С 2 >70 км в посл. час дождь н/о +4.3 -0.9 69 +2 +2 прохладно 1017.7 1009.9 +8.1 2
С 5 70 км н/о +4.1 -1.9 65 -0 -0 по сезону 1018.3 1010.4
С 4 55 км н/о +2.7 -1.5 74 -2 -2 по сезону 1018.9 1011.0
С 2 50 км н/о +1.6 -2.1 76 -2 -2 холодно 1019.4 1011.5
С 3 45 км н/о +0.7 -2.0 82 -3 -3 прохладно 1019.7 1011.7
СЗ 2 45 км н/о -0.1 -2.7 83 -3 -3 по сезону 1020.0 1012.0
С 1 40 км н/о -0.7 -3.1 84 -1 -1 прохладно 1020.4 1012.4 0.2
С 2 35 км н/о -0.8 -2.6 88 -4 -4 по сезону 1020.5 1012.4
С 2 35 км слаб. снег н/о 0.0 -1.8 88 -4 -4 по сезону 1020.4 1012.4
С 2 30 км в посл. час снег н/о -1.3 -2.6 91 -5 -5 холодно 1020.7 1012.6
С 1 30 км н/о -2.1 -3.3 91 -3 -3 по сезону 1020.8 1012.7
С 2 40 км н/о -1.7 -2.3 96 -6 -6 по сезону 1021.5 1013.4
С 1 45 км н/о -1.1 -1.8 95 -3 -3 прохладно 1021.6 1013.6 -2.7 0.2 1.8
СВ 2 35 км н/о +0.1 -0.7 94 -3 -3 по сезону 1021.9 1013.9
С 2 60 км н/о +1.6 +0.5 92 -2 -2 тепло 1022.5 1014.5
СЗ 3 >70 км н/о +3.0 +0.4 83 -1 -1 холодно 1022.6 1014.7
СЗ 4 65 км н/о +4.2 -0.2 73 0 0 по сезону 1022.7 1014.8
СЗ 5 >70 км н/о +5.6 -0.7 64 +2 +2 тепло 1022.6 1014.8
СЗ 4 15 км н/о +6.6 -2.7 51 +3 +3 прохладно 1022.6 1014.8
З 4 15 км н/о +6.8 -1.2 57 +4 +4 по сезону 1022.7 1014.9
СЗ 4 >70 км н/о +6.5 -3.1 50 +3 +3 по сезону 1023.0 1015.1
СЗ 3 >70 км н/о +6.6 -2.2 53 +4 +4 прохладно 1022.9 1015.1
СЗ 4 60 км в посл. час дождь н/о +5.9 -0.4 64 +3 +3 по сезону 1023.0 1015.1
СЗ 3 60 км слаб. дождь н/о +5.4 +0.2 69 +2 +2 по сезону 1023.1 1015.2
З 3 70 км н/о +5.1 -0.3 68 +2 +2 прохладно 1023.4 1015.6 +7.9 0.0
С 2 70 км н/о +4.2 -0.8 70 +2 +2 по сезону 1023.7 1015.8
штиль 0 60 км н/о +4.0 -0.8 71 +3 +3 тепло 1024.2 1016.3
СЗ 1 30 км н/о +4.0 -0.3 74 +3 +3 по сезону 1024.6 1016.7
СЗ 2 55 км н/о +3.7 0.0 77 +2 +2 по сезону 1025.0 1017.0
СЗ 1 45 км н/о +2.9 -0.5 78 +1 +1 тепло 1025.3 1017.3
СЗ 1 40 км н/о +2.3 -0.3 83 +2 +2 по сезону 1025.7 1017.7
С 2 35 км н/о +1.9 -0.3 85 -1 -1 по сезону 1025.9 1017.9
С 1 9000 м слаб. морось с дождем н/о +2.1 0.0 86 0 0 тепло 1026.1 1018.1
штиль 0 55 км в посл. час морось н/о +2.3 0.0 85 +1 +1 по сезону 1026.2 1018.2
С 1 55 км в посл. час морось н/о +1.4 -0.3 88 +1 +1 по сезону 1026.4 1018.3
В 1 50 км н/о +0.9 -0.1 93 -1 -1 тепло 1026.8 1018.8
В 1 30 км н/о -0.2 -1.2 93 -2 -2 прохладно 1027.3 1019.2 -0.2 0.0
ЮВ 1 40 км н/о +0.9 -0.6 90 -1 -1 по сезону 1027.9 1019.9
ЮВ 2 50 км н/о +3.6 +1.1 84 +1 +1 тепло 1028.2 1020.3
Ю 1 40 км н/о +5.2 +1.7 78 +4 +4 по сезону 1028.5 1020.6
З 2 45 км н/о +6.2 +0.5 67 +4 +4 по сезону 1029.0 1021.1
ЮЗ 3 55 км н/о +6.5 -0.5 61 +4 +4 тепло 1029.2 1021.3
ЮЗ 2 >70 км н/о +7.7 -1.7 51 +6 +6 по сезону 1029.2 1021.4
ЮЗ 2 70 км н/о +8.4 -0.7 53 +7 +7 по сезону 1029.3 1021.5
З 2 70 км н/о +8.9 -0.8 51 +8 +8 тепло 1029.1 1021.3
З 2 >70 км н/о +9.2 -0.1 52 +8 +8 по сезону 1028.8 1021.0
З 2 65 км н/о +9.6 +0.4 53 +8 +8 тепло 1028.9 1021.1
З 3 60 км н/о +8.7 +0.8 58 +7 +7 тепло 1029.1 1021.3
ЮЗ 2 70 км н/о +8.6 +1.4 61 +8 +8 по сезону 1029.3 1021.5 +10.3
ЮЗ 2 65 км н/о +7.7 +2.6 70 +6 +6 по сезону 1029.5 1021.7
Ю 3 29 км слаб. дождь н/о +6.9 +3.8 81 +4 +4 тепло 1030.2 1022.3
Ю 3 22 км в посл. час дождь н/о +6.2 +4.5 89 +3 +3 по сезону 1030.6 1022.7
Ю 3 14 км слаб. дождь н/о +5.7 +4.1 89 +2 +2 по сезону 1030.8 1022.9
Ю 3 21 км в посл. час дождь н/о +5.6 +4.0 89 +3 +3 тепло 1031.0 1023.1
Ю 2 15 км н/о +5.3 +3.9 91 +3 +3 по сезону 1031.3 1023.4 0.0
Ю 2 9000 м дымка н/о +4.2 +3.3 94 +2 +2 по сезону 1031.3 1023.3
Ю 2 6000 м дымка н/о +3.4 +2.6 94 0 0 тепло 1031.3 1023.4
Ю 2 5000 м дымка н/о +4.1 +3.8 98 +1 +1 по сезону 1031.5 1023.5
Ю 2 100 м туман н/о +3.5 +3.2 98 0 0 по сезону 1031.4 1023.4
ЮВ 2 <100 м туман н/о +3.5 +3.4 99 0 0 тепло 1031.4 1023.4
ЮВ 2 400 м туман н/о +2.2 +2.1 99 -1 -1 прохладно 1031.9 1023.9 +2.2 0.0 76.2
Ю 2 100 м туман н/о +3.1 +3.1 100 -0 -0 по сезону 1032.3 1024.3
Ю 2 100 м осадки н/о +4.0 +4.0 100 +1 +1 тепло 1032.6 1024.6
ЮЗ 1 27 км в посл. час осадки н/о +5.8 +5.8 100 +4 +4 по сезону 1032.7 1024.8 70.9
ЮЗ 2 45 км н/о +7.7 +5.3 85 +6 +6 тепло 1032.8 1024.9
С 1 >70 км н/о +9.9 +3.0 62 +11 +11 тепло 1032.7 1024.9
З 2 11 км н/о +10.2 +2.3 58 +9 +9 по сезону 1032.6 1024.8 0.0
З 3 70 км н/о +10.8 +2.7 57 +9 +9 тепло 1032.5 1024.7
З 2 >70 км н/о +10.9 +1.7 53 +10 +10 тепло 1032.4 1024.6
СЗ 3 70 км н/о +11.4 +2.9 56 +10 +10 тепло 1032.1 1024.4
СЗ 3 >70 км н/о +11.3 +2.6 55 +10 +10 тепло 1032.0 1024.2
С 2 65 км н/о +10.6 +3.4 61 +10 +10 тепло 1031.9 1024.1
СЗ 2 65 км н/о +9.8 +4.4 69 +9 +9 по сезону 1032.1 1024.3 +12.5 0.0
С 2 35 км слаб. дождь н/о +8.5 +4.7 77 +7 +7 тепло 1032.8 1024.9
В 2 60 км в посл. час дождь н/о +7.6 +4.9 83 +6 +6 тепло 1033.2 1025.3
СВ 2 30 км н/о +6.5 +4.6 88 +5 +5 по сезону 1033.5 1025.5
С 2 17 км н/о +5.4 +4.6 95 +3 +3 по сезону 1033.6 1025.6
В 1 14 км н/о +4.6 +3.7 94 +3 +3 тепло 1033.7 1025.7
ЮВ 1 17 км н/о +3.6 +2.2 91 +2 +2 по сезону 1033.7 1025.7 0.0
В 3 14 км н/о +2.5 +1.7 94 -1 -1 по сезону 1033.9 1025.8
В 2 17 км н/о +2.3 +1.3 93 -0 -0 тепло 1033.8 1025.8
В 1 3600 м дымка н/о +0.2 -0.9 92 -2 -2 прохладно 1033.8 1025.7
В 2 11 км н/о +0.6 -0.2 94 -2 -2 по сезону 1033.8 1025.7
В 2 24 км н/о +0.2 -0.3 96 -3 -3 по сезону 1033.9 1025.8
В 1 24 км н/о +0.5 -0.2 95 -2 -2 прохладно 1034.2 1026.1 -0.1 0.0
СВ 1 21 км н/о +1.1 +0.2 94 +1 +1 по сезону 1034.7 1026.7
С 1 45 км н/о +5.3 +3.9 91 +5 +5 тепло 1034.6 1026.6
СВ 2 65 км н/о +8.8 +4.6 75 +7 +7 по сезону 1034.5 1026.7
В 2 60 км н/о +9.9 +2.7 61 +9 +9 тепло 1034.6 1026.7
ЮВ 2 15 км н/о +11.3 +2.3 54 +11 +11 тепло 1034.4 1026.7
ЮЗ 2 70 км н/о +10.1 +4.0 66 +9 +9 по сезону 1034.3 1026.5
В 1 70 км н/о +10.4 +3.3 61 +11 +11 тепло 1034.2 1026.4
ЮЗ 1 60 км н/о +10.7 +4.5 65 +11 +11 тепло 1034.1 1026.3
ЮВ 2 70 км н/о +11.4 +3.7 59 +11 +11 тепло 1033.8 1026.0
ЮВ 2 60 км н/о +12.4 +3.6 55 +12 +12 тепло 1033.3 1025.6
В 4 >70 км н/о +11.5 +2.5 54 +10 +10 тепло 1033.2 1025.4
В 4 55 км н/о +10.3 +3.6 63 +8 +8 по сезону 1033.2 1025.4 +12.7
В 3 50 км н/о +9.6 +4.0 68 +7 +7 тепло 1033.4 1025.6
В 3 30 км н/о +7.6 +3.4 75 +5 +5 тепло 1033.8 1025.9
В 3 40 км н/о +6.4 +2.7 77 +4 +4 по сезону 1034.0 1026.1
В 3 35 км н/о +5.1 +2.9 86 +2 +2 по сезону 1034.2 1026.2
В 2 19 км н/о +4.2 +2.5 89 +2 +2 тепло 1034.2 1026.2
СВ 2 9000 м дымка н/о +2.6 +1.8 94 -1 -1 прохладно 1034.3 1026.3
В 2 7000 м дымка н/о +2.5 +1.8 95 -0 -0 по сезону 1034.2 1026.2
В 2 11 км н/о +2.3 +1.5 94 -1 -1 тепло 1034.2 1026.1
В 2 17 км н/о +1.6 +0.8 94 -1 -1 прохладно 1034.1 1026.0
В 3 18 км н/о +0.6 -0.5 92 -4 -4 по сезону 1034.0 1025.9
В 2 35 км н/о +0.2 -1.0 92 -3 -3 по сезону 1034.0 1025.9
В 1 20 км н/о +0.3 -0.7 93 -2 -2 прохладно 1034.2 1026.1 -0.2
В 1 21 км н/о +4.0 +2.7 91 +2 +2 тепло 1034.2 1026.3
СВ 1 30 км н/о +7.2 +4.0 80 +7 +7 тепло 1034.2 1026.3
ЮВ 5 40 км н/о +10.2 +2.8 60 +8 +8 тепло 1033.9 1026.1
ЮВ 5 35 км н/о +11.1 +2.3 55 +9 +9 тепло 1034.0 1026.3
ЮВ 5 28 км н/о +11.7 +3.2 56 +9 +9 тепло 1033.7 1025.9
ЮВ 6 45 км н/о +13.1 +0.7 43 +11 +11 тепло 1033.2 1025.5
ЮВ 7 65 км н/о +13.2 -0.8 38 +11 +11 тепло 1033.0 1025.2
ЮВ 6 50 км н/о +13.1 -1.8 36 +11 +11 тепло 1032.6 1024.9
ЮВ 6 60 км н/о +12.9 -1.6 37 +11 +11 тепло 1032.2 1024.5
ЮВ 5 60 км н/о +12.9 -1.5 37 +11 +11 тепло 1032.1 1024.3
ЮВ 6 40 км н/о +12.6 -0.4 41 +10 +10 тепло 1031.6 1023.9
ЮВ 5 50 км н/о +11.4 -0.1 45 +9 +9 по сезону 1031.4 1023.6 +13.9
ЮВ 6 35 км н/о +9.6 +1.2 56 +7 +7 тепло 1031.5 1023.7
ЮВ 5 22 км н/о +7.9 +2.6 69 +5 +5 тепло 1031.8 1023.9
ЮВ 4 18 км н/о +6.7 +2.9 77 +3 +3 по сезону 1031.6 1023.7
ЮВ 4 26 км н/о +6.3 +2.2 75 +3 +3 по сезону 1031.4 1023.5
В 2 22 км н/о +3.7 +1.3 84 +1 +1 тепло 1031.1 1023.1
В 2 21 км н/о +3.7 +1.7 87 +1 +1 по сезону 1031.1 1023.1
ЮВ 3 30 км н/о +6.2 +1.5 72 +3 +3 тепло 1030.6 1022.7
ЮВ 4 26 км н/о +6.7 +1.7 70 +3 +3 тепло 1030.4 1022.5
Ю 5 24 км н/о +6.3 +2.2 75 +2 +2 по сезону 1030.1 1022.2
Ю 4 21 км н/о +5.3 +2.0 79 +2 +2 тепло 1029.9 1022.0
ЮВ 4 22 км н/о +5.4 +1.6 76 +2 +2 тепло 1030.0 1022.1
ЮВ 4 20 км н/о +4.5 +1.3 80 +1 +1 по сезону 1030.2 1022.2 +2.8
Ю 4 22 км н/о +6.1 +2.0 75 +3 +3 тепло 1030.5 1022.6
Ю 5 30 км н/о +7.7 +0.7 61 +4 +4 тепло 1030.7 1022.9
Ю 4 40 км н/о +8.9 +0.2 54 +6 +6 по сезону 1030.5 1022.7
Ю 6 40 км н/о +9.7 -1.1 47 +7 +7 тепло 1030.2 1022.4
Ю 7 60 км н/о +10.9 -1.0 44 +8 +8 тепло 1029.8 1022.1
ЮЗ 6 60 км н/о +11.6 -0.6 43 +9 +9 по сезону 1029.5 1021.7
Ю 6 45 км н/о +12.0 +0.2 44 +10 +10 тепло 1029.2 1021.5
Ю 6 17 км н/о +12.6 +0.8 44 +11 +11 тепло 1029.1 1021.4
Ю 5 45 км н/о +11.2 +1.1 50 +9 +9 тепло 1028.7 1020.9
Ю 6 45 км н/о +11.9 +0.9 47 +10 +10 тепло 1028.5 1020.8
Ю 6 50 км н/о +10.5 +1.3 53 +8 +8 тепло 1028.6 1020.9
Ю 6 40 км н/о +9.9 +1.6 56 +7 +7 по сезону 1028.6 1020.8 +12.7
Ю 5 35 км н/о +9.5 +1.9 59 +7 +7 тепло 1028.8 1021.0
ЮВ 4 40 км н/о +8.7 +1.1 59 +6 +6 тепло 1029.1 1021.3
ЮВ 5 30 км н/о +8.6 +1.1 59 +6 +6 по сезону 1029.4 1021.6
Ю 4 35 км н/о +8.6 +1.1 59 +6 +6 тепло 1029.2 1021.4
ЮВ 4 35 км н/о +7.5 +0.9 63 +5 +5 тепло 1029.3 1021.5
ЮВ 4 35 км н/о +6.3 +0.8 68 +3 +3 по сезону 1029.4 1021.6
Ю 4 35 км н/о +6.3 +0.5 66 +3 +3 тепло 1029.4 1021.5
Ю 4 35 км н/о +5.9 +0.8 70 +2 +2 тепло 1029.2 1021.3
Ю 3 30 км н/о +4.9 +0.9 75 +2 +2 по сезону 1029.1 1021.2
ЮВ 3 30 км н/о +4.7 +1.1 77 +1 +1 тепло 1029.3 1021.3
ЮВ 4 30 км н/о +4.0 +0.4 77 -0 -0 тепло 1029.2 1021.3
ЮВ 5 29 км н/о +4.4 +0.9 78 -0 -0 по сезону 1029.0 1021.1 +3.8
Ю 6 35 км н/о +6.8 +2.3 73 +3 +3 тепло 1029.0 1021.1
Ю 6 40 км н/о +7.8 +2.2 68 +4 +4 тепло 1028.9 1021.1
Ю 6 35 км н/о +9.2 +1.2 57 +6 +6 по сезону 1028.6 1020.8
Ю 6 45 км н/о +10.5 +0.6 50 +8 +8 тепло 1028.3 1020.6
Ю 6 60 км н/о +11.4 -0.4 44 +9 +9 тепло 1027.7 1020.0
Ю 6 50 км н/о +12.0 -0.4 42 +10 +10 тепло 1027.1 1019.4
Ю 7 55 км н/о +12.4 -1.6 38 +10 +10 тепло 1026.8 1019.1
Ю 8 45 км н/о +12.5 +0.3 43 +10 +10 тепло 1026.2 1018.5
Местоположение метеостанции Белфаст (Великобритания): широта 54.65 долгота -6.22 высота над уровнем моря 68 м.
В архиве по умолчанию представлена погода в Белфасте за последнюю неделю. Архивные данные за месяц целиком и за предыдущие месяцы, начиная с января 2011 года, Вы можете получить, выбрав интересующий диапазон дат из раскрывающегося списка и нажав кнопку "Найти!".
*Определитесь, кто Вы:
Внимание! Время в таблицах - всемирное. Для получения местного времени необходимо прибавить поправку, которая равна 0 ч.
Смотрите также архив погоды в соседних городах и на ближайших метеорологических станциях:
Партнеры нашего сайта:      
Пояснения к столбцам:
  • Ветер - указаны скорость ветра в м/с - средняя за 10 мин, порывы в срок и между сроками (в фигурных скобках) и направление, откуда дует ветер: С - северный,
  • СВ - северо-восточный, В - восточный, ЮВ - юго-восточный, Ю - южный, ЮЗ - юго-западный, З - западный, СЗ - северо-западный.
  • Видимость - горизонтальная дальность видимости в метрах или километрах. При видимости от 1 до 10 км при отсутствии осадков обычно наблюдается дымка, при ухудшении видимости до 1 км и менее - туман. В сухую погоду видимость может ухудшаться дымом, пылью или мглою.
  • Явления - указаны атмосферные явления, наблюдавшиеся в срок или в последний час перед сроком; фигурными скобками обозначены явления, наблюдавшиеся между сроками (за 1-3 часа до срока); квадратными скобками обозначены град или гололедные отложения с указанием их диаметра в мм.
  • Облачность - указаны через наклонную черту общая и нижняя облачность в баллах и высота нижней границы облаков в метрах; квадратными скобками обозначены формы облаков: Ci - перистые, Cs - перисто-слоистые, Cc - перисто-кучевые, Ac - высококучевые, As - высокослоистые, Sc - слоисто-кучевые, Ns - слоисто-дождевые, Cu - кучевые, Cb - кучево-дождевые. Подробнее классификацию облаков см. в Атласе облаков (PDF).
  • T - Температура воздуха - температура, измеренная на высоте 2 м над землей.
  • Td - Температура точки росы - температура, при понижении до которой содержащийся в воздухе водяной пар достигнет насыщения.
  • f - Относительная влажность воздуха - влажноcть воздуха, измеренная на высоте 2 м над землей.
  • Te - Эффективная температура - температура, которую ощущает одетый по сезону человек в тени. Характеристика душности погоды. При расчете учитывается влияние влажности воздуха и скорости ветра на теплоощущения человека.
  • Tes - Эффективная температура на солнце - температура, которую ощущает человек, с поправкой на солнечный нагрев. Характеристика знойности погоды. Зависит от высоты солнца над горизонтом, облачности и скорости ветра. Ночью, в пасмурную погоду, а также при ветре 12 м/с и более поправка равна нулю.
  • P - Атмосферное давление - приведенное к уровню моря атмосферное давление.
  • Po - Атмосферное давление - измеренное на уровне метеостанции атмосферное давление.
  • Tmin - Минимальная температура - минимум температуры воздуха на высоте 2 м над землей.
  • Tmax - Максимальная температура - максимум температуры воздуха на высоте 2 м над землей.
  • R - Количество осадков - Количество выпавших осадков за период времени, мм. При наведении курсора мыши на число - период времени, за который выпало указанное количество осадков.
  • R24 - Количество осадков - Количество выпавших осадков за 24 часа, мм.
  • S - Снежный покров - Высота снежного покрова, см. При наведении курсора мыши на число - состояние снежного покрова и степень покрытия местности в баллах.